Date,TemperatureHighF,TemperatureAvgF,TemperatureLowF,DewpointHighF,DewpointAvgF,DewpointLowF,HumidityHigh,HumidityAvg,HumidityLow,PressureMaxIn,PressureMinIn,WindSpeedMaxMPH,WindSpeedAvgMPH,GustSpeedMaxMPH,PrecipitationSumIn
2013-4-4,53,52,51,52,51,51,97,97,96,29.79,29.78,8,6,0,0.00
2013-4-29,50,47,46,39,36,35,74,66,58,30.27,30.16,26,11,0,0.00
2013-4-30,52,48,44,40,16,-100,71,52,50,30.40,30.14,30,11,0,0.00
2013-5-1,53,47,42,40,36,33,77,66,52,30.58,30.40,18,7,0,0.00
2013-5-2,45,44,42,43,41,38,95,88,84,30.55,30.40,18,11,0,0.00
2013-5-3,53,50,47,-100,-100,-100,0,0,100,30.56,30.45,7,3,0,0.00
2013-5-4,60,51,47,-100,-100,-100,0,0,100,30.45,30.29,6,3,0,0.00
2013-5-5,56,49,43,42,-88,-100,92,7,86,30.28,29.93,14,6,0,0.00
2013-5-6,59,51,45,49,-90,-100,97,6,72,30.13,29.94,24,9,0,0.00
2013-5-7,59,49,38,49,-64,-100,97,20,63,30.15,29.97,10,4,0,0.00
2013-5-8,45,42,39,39,-84,-100,98,11,98,30.10,30.03,16,6,0,0.00
2013-5-9,63,58,52,45,-62,-100,77,17,52,30.19,30.12,13,6,0,0.00
2013-5-10,57,50,44,46,-88,-100,74,6,65,30.22,30.05,24,8,0,0.00
2013-5-11,49,48,47,47,-80,-100,93,13,92,29.91,29.71,9,4,0,0.00
2013-5-12,50,48,46,49,-79,-100,97,13,67,29.71,29.60,15,4,0,0.00
2013-5-13,50,47,45,47,-70,-100,100,19,86,29.80,29.68,10,3,0,0.00
2013-5-14,48,46,44,45,-87,-100,99,8,94,29.97,29.81,5,2,0,0.00
2013-5-15,50,47,45,46,-95,-100,86,3,86,30.02,29.90,14,5,0,0.00
2013-5-16,49,44,44,-100,-100,-100,0,0,100,30.01,29.88,16,9,0,0.00
2013-5-17,55,50,47,-100,-100,-100,0,0,100,29.86,29.75,8,3,0,0.00
2013-5-18,51,48,42,-100,-100,-100,0,0,100,30.29,29.76,14,5,0,0.00
2013-5-19,45,41,37,-100,-100,-100,0,0,100,30.51,30.31,9,4,0,0.00
2013-5-20,52,44,37,35,-95,-100,58,2,58,30.49,30.23,34,9,0,0.00
2013-5-21,58,54,49,-100,-100,-100,0,0,100,30.29,30.02,20,8,0,0.00
2013-5-22,61,52,42,38,-86,-100,63,5,36,30.05,29.98,15,6,0,0.00
2013-5-23,51,45,41,38,-60,-100,78,20,60,30.05,29.94,11,4,0,0.00
2013-5-24,57,48,43,44,-88,-100,93,7,81,30.01,29.87,17,7,0,0.00
2013-5-25,48,46,45,45,-72,-100,97,18,84,30.05,29.98,11,6,0,0.00
2013-5-26,52,49,43,46,-82,-100,94,11,79,29.98,29.85,10,4,0,0.00
2013-5-27,63,52,46,46,-77,-100,88,12,53,29.87,29.61,15,5,0,0.00
2013-5-28,71,55,47,45,-81,-100,92,11,75,29.64,29.54,14,6,0,0.00
2013-5-29,53,49,48,48,-75,-100,96,15,75,29.86,29.56,16,6,0,0.00
2013-5-30,55,51,46,46,-72,-100,94,16,70,30.03,29.85,21,5,0,0.00
2013-5-31,50,50,48,-100,-100,-100,0,0,100,30.23,30.06,16,10,0,0.00
2013-6-1,49,47,45,-100,-100,-100,0,0,100,30.28,30.21,11,4,0,0.00
2013-6-2,56,50,45,-100,-100,-100,0,0,100,30.30,30.19,14,5,0,0.00
2013-6-3,57,50,42,-100,-100,-100,0,0,100,30.18,30.00,13,6,0,0.00
2013-6-4,51,38,50,-100,-100,-100,0,0,100,29.99,29.96,20,9,0,0.00
2013-6-29,58,5,57,52,-87,-100,84,7,78,30.06,29.99,9,3,0,0.00
2013-6-30,57,3,57,55,-93,-100,91,4,91,30.07,30.00,18,9,0,0.00
2013-7-1,53,6,52,49,-83,-100,91,10,87,29.99,29.55,31,10,0,0.00
2013-7-2,51,6,49,47,-83,-100,94,9,75,29.87,29.58,12,4,0,0.00
2013-7-3,46,2,46,45,-94,-100,95,4,95,30.00,29.91,14,5,0,0.00
2013-7-4,-200,0,200,-100,-100,-100,0,0,100,30.02,29.96,14,6,0,0.00
2013-7-5,-200,0,200,-100,-100,-100,0,0,100,30.04,30.03,3,2,0,0.00
2013-7-12,52,9,50,51,-74,-100,95,16,84,29.90,29.85,15,7,0,0.00
2013-7-13,50,15,49,49,-55,-100,100,29,94,30.05,29.86,10,4,0,0.00
2013-7-14,50,49,48,48,47,46,98,93,90,30.27,30.09,15,8,0,0.00
2013-7-15,47,47,47,47,47,47,100,100,100,30.27,30.27,3,3,0,0.00
2013-7-19,-200,0,200,-100,-100,-100,0,0,100,30.52,30.49,10,6,0,0.00
2013-7-20,55,6,52,51,-84,-100,96,9,84,30.51,30.43,14,8,0,0.00
2013-7-21,57,53,49,53,51,49,100,94,87,30.32,30.21,23,20,0,0.00
2013-7-22,53,53,53,50,50,50,91,90,89,30.19,30.19,24,20,0,0.00
2013-7-23,55,53,51,50,49,49,92,88,82,30.22,30.15,20,15,0,0.00
2013-7-24,58,56,54,54,53,51,94,87,81,30.10,29.96,27,11,0,0.00
2013-7-25,61,59,56,56,54,53,93,87,80,29.95,29.94,12,6,0,0.00
2013-7-30,62,4,55,56,-88,-100,94,7,78,30.18,29.96,36,22,0,0.00
2013-7-31,54,20,54,54,-44,-100,100,36,98,29.91,29.82,43,28,0,0.00
2013-8-2,55,54,53,53,53,53,100,97,91,29.61,29.42,16,14,0,0.00
2013-8-3,60,58,56,52,52,51,83,79,75,29.70,29.64,5,4,0,0.00
2013-8-4,54,54,53,52,51,51,95,90,87,29.83,29.78,9,7,0,0.00
2013-8-5,54,53,52,52,51,51,97,93,91,29.57,29.30,28,19,0,0.00
2013-8-6,52,52,52,51,50,50,97,94,91,29.27,29.23,23,22,0,0.00
2013-8-7,54,51,50,49,47,45,97,86,70,29.56,29.40,27,17,0,0.00
2013-8-9,52,26,52,51,-25,-100,97,48,91,29.68,29.54,15,11,0,0.00
2013-8-10,54,8,52,49,-78,-100,90,13,82,29.92,29.69,16,8,0,0.00
2013-8-11,54,4,52,50,-87,-100,89,7,87,30.08,29.93,8,4,0,0.00
2013-8-12,53,9,49,51,-73,-100,98,16,82,30.08,29.88,16,6,0,0.00
2013-8-13,52,6,51,51,-88,-100,100,7,86,29.87,29.73,28,16,0,0.00
2013-8-14,53,1,53,-100,-100,-100,0,0,100,29.94,29.80,24,17,0,0.00
2013-8-15,-200,0,200,-100,-100,-100,0,0,100,29.93,29.80,15,9,0,0.00
2013-8-19,56,7,53,51,-81,-100,91,11,84,29.72,29.65,10,1,0,0.00
2013-8-20,56,5,53,51,-89,-100,91,6,84,29.76,29.65,18,1,0,0.00
2013-8-21,53,2,52,50,-94,-100,89,4,88,29.94,29.90,15,0,0,0.00
2013-8-22,-200,0,200,-100,-100,-100,0,0,100,0.00,40.00,0,0,0,0.00
2013-9-3,-200,0,200,-100,-100,-100,0,0,100,29.96,29.31,24,17,0,0.00
2013-9-4,55,4,51,45,-92,-100,81,4,71,29.83,29.47,24,16,0,0.00
2013-9-5,53,3,53,48,-91,-100,81,5,81,29.90,29.83,16,12,0,0.00
2013-9-10,53,33,50,45,-9,-100,75,45,68,29.87,29.71,28,18,0,0.00
2013-9-11,52,51,49,46,45,43,82,79,77,29.87,29.68,9,6,0,0.00
2013-9-12,53,51,49,49,48,47,96,89,79,29.40,29.25,15,8,0,0.00
2013-9-13,51,41,49,50,21,-100,98,74,79,30.06,29.49,24,17,0,0.00
2013-9-14,51,20,48,46,-41,-100,91,34,77,30.24,30.07,20,12,0,0.00
2013-9-15,50,10,48,42,-71,-100,81,16,71,30.25,30.14,13,7,0,0.00
2013-9-16,50,11,47,47,-68,-100,94,19,68,30.14,29.94,23,10,0,0.00
2013-9-17,50,13,48,47,-60,-100,94,23,78,29.93,29.78,28,12,0,0.00
2013-9-18,49,7,49,43,-80,-100,79,11,76,29.96,29.91,21,12,0,0.00
2013-9-19,-200,0,200,-100,-100,-100,0,0,100,29.90,29.83,18,12,0,0.00
2013-9-20,52,3,49,49,-92,-100,97,5,90,29.82,28.63,45,18,0,0.00
2013-9-21,48,7,45,44,-79,-100,88,12,61,29.63,28.81,44,23,0,0.00
2013-9-22,47,7,44,39,-78,-100,80,11,60,29.87,29.66,32,15,0,0.00
2013-9-23,49,8,45,47,-77,-100,92,14,76,29.87,29.69,31,14,0,0.00
2013-9-24,50,4,47,50,-88,-100,100,8,98,29.70,29.54,31,21,0,0.00
2013-9-25,-200,0,200,-100,-100,-100,0,0,100,29.54,29.42,28,10,0,0.00
2013-9-30,-200,0,200,-100,-100,-100,0,0,100,29.59,29.58,32,22,0,0.00
2013-10-1,52,4,52,46,-89,-100,79,6,79,29.82,29.69,9,6,0,0.00
2013-10-2,54,7,49,47,-80,-100,89,11,71,30.11,29.83,23,12,0,0.00
2013-10-3,51,1,51,49,-96,-100,96,3,96,30.11,29.83,26,12,0,0.00
2013-10-4,53,4,53,51,-90,-100,92,6,91,30.16,29.83,31,16,0,0.00
2013-10-5,53,3,53,51,-92,-100,92,5,91,30.23,30.14,11,6,0,0.00
2013-10-6,58,2,58,53,-96,-100,81,2,81,30.14,29.81,23,12,0,0.00
2013-10-7,55,3,55,51,-90,-100,87,5,87,30.08,29.92,24,19,0,0.00